Regional Weather Roundup
Issued by NWS

Home | Current Version | Previous Version | Graphics & Text | Print | Product List | Glossary On
Versions: 1 2 3 4 5 6 7 8 9 10 11 12 13 14 15 16 17 18 19 20 21 22 23 24 25 26 27 28 29 30 31 32 33 34 35 36 37 38 39 40 41 42 43 44 45 46 47 48 49 50
000
ASUS43 KLMK 230002
RWRKY
KENTUCKY REGIONAL WEATHER ROUNDUP
NATIONAL WEATHER SERVICE LOUISVILLE KY
700 PM EST WED NOV 22 2017

NOTE "FAIR" INDICATES FEW OR NO CLOUDS BELOW 12,000 FEET
WITH NO SIGNIFICANT WEATHER AND/OR OBSTRUCTIONS TO VISIBILITY.

KYZ001>023-026-027-061>063-070>075-230100-
WESTERN AND SOUTH CENTRAL KENTUCKY

CITY           SKY/WX    TMP DP  RH WIND       PRES   REMARKS
PADUCAH        CLEAR     36  19  50 N5        30.28R WCI  32
HENDERSON      CLEAR     36  22  56 NW5       30.30R WCI  32
OWENSBORO      NOT AVBL
HOPKINSVILLE   CLEAR     35  22  60 N7        30.26R WCI  29
BOWLING GREEN  CLEAR     39  24  55 N3        30.26R
GLASGOW        NOT AVBL
$$

KYZ024-025-028>034-038-045-046-053-230100-
NORTH CENTRAL KENTUCKY

CITY           SKY/WX    TMP DP  RH WIND       PRES   REMARKS
LOUISVILLE/SDF CLEAR     37  24  59 N7        30.27R WCI  32
LOUISVILLE/LOU CLEAR     37  25  61 NW3       30.28R
FORT KNOX      CLEAR     35  21  57 N3        30.24R
$$

KYZ035>037-039>044-047>052-055>060-089>105-230100-
NORTHEAST KENTUCKY

CITY           SKY/WX    TMP DP  RH WIND       PRES   REMARKS
LEXINGTON      CLEAR     33  24  69 NE10      30.24R WCI  25
COVINGTON      CLEAR     32  25  75 E7        30.26S WCI  26
FRANKFORT      CLEAR     37  22  54 NE5       30.23F WCI  33
$$

KYZ054-064>069-076>088-106>120-230100-
SOUTHEAST KENTUCKY

CITY           SKY/WX    TMP DP  RH WIND       PRES   REMARKS
JACKSON        PTCLDY    36  24  62 VRB3      30.22R
LONDON         CLEAR     37  23  56 N3        30.21R
SOMERSET       NOT AVBL
MIDDLESBORO    PTCLDY    37  28  71 CALM      30.20R
MONTICELLO     CLEAR     34  25  69 NW9       30.24R WCI  27
$$





USA.gov is the U.S. government's official web portal to all federal, state and local government web resources and services.